Voltar ao catálogo

JILIN-1 GAOFEN 06A 20 XING

AtivoCiênciaSSO
NORAD 57031·PAYLOAD·🇨🇳 China
Este nome de satélite ainda não foi confirmado por fontes oficiais.

Lançado Jun 15, 2023 de Taiyuan Satellite Launch Center

Loading…

Próximas Passagens (próximas 24 horas)

TLE

AtualizadoSource: Space-Track

Época: Sep 14, 2026, 14:29 UTC

1 57031U 23085AD  26257.60382552  .00014103  00000-0  38853-3 0  9996
2 57031  97.5026  11.8793 0009068 117.4186 242.7981 15.37213763180502

Acompanhe JILIN-1 GAOFEN 06A 20 XING em tempo real com AllMySat

Download on the App Store